FW3912 Weather Reports


Display with metric or nautical units.
time (UTC)temp
F
wind
direction
speed
MPH
gust
MPH
rain 1hr
in
rain 24hr
in
rain mn
in
humidity
%
barometer
mb
20260506182116 52 270 1.0 3.0 0.00 0.15 0.15 94 1009.9
20260506181017 52 270 2.0 7.0 0.00 0.15 0.15 95 1009.8
20260506172015 53 0 1.0 3.0 0.03 0.15 0.15 94 1009.1
20260506171015 53 338 1.0 3.0 0.11 0.15 0.15 94 1009.0
20260506162015 55 270 2.0 12.0 0.11 0.12 0.12 88 1008.7
20260506161015 57 270 3.0 6.0 0.03 0.04 0.04 87 1009.0
20260506150015 62 270 1.0 2.0 0.00 0.01 0.01 70 1008.4
20260506145025 62 270 1.0 3.0 0.00 0.02 0.01 71 1008.6
20260506140536 62 270 1.0 3.0 0.00 0.06 0.01 69 1008.4
20260506135515 63 0.0 2.0 0.00 0.06 0.01 70 1008.4
20260506130515 63 0.0 1.0 0.00 0.06 0.01 69 1008.3
20260506130015 63 225 1.0 1.0 0.00 0.06 0.01 70 1008.5
20260506113017 62 135 1.0 3.0 0.00 0.06 0.01 71 1009.1
20260506104017 61 203 2.0 5.0 0.00 0.06 0.01 73 1009.5
20260506103017 61 203 1.0 4.0 0.00 0.06 0.01 73 1009.6
20260506102017 61 270 2.0 6.0 0.00 0.06 0.01 74 1009.5
20260506093517 61 270 2.0 4.0 0.00 0.06 0.01 74 1009.5
20260506092517 61 225 1.0 4.0 0.00 0.06 0.01 77 1009.5
20260506083536 59 225 1.0 2.0 0.00 0.06 0.01 82 1009.4
20260506082516 58 0.0 2.0 0.00 0.06 0.01 83 1009.5
20260506072055 57 0.0 2.0 0.00 0.06 0.01 86 1009.3
20260506071015 56 0.0 1.0 0.00 0.06 0.01 90 1009.3
20260506062015 54 203 1.0 3.0 0.00 0.06 0.01 94 1009.2
20260506061015 53 0.0 1.0 0.00 0.06 0.01 95 1009.1
20260506051015 48 0.0 0.0 0.01 0.06 0.01 98 1009.3